TimeCDT,TemperatureF,Dew PointF,Humidity,Sea Level PressureIn,VisibilityMPH,Wind Direction,Wind SpeedMPH,Gust SpeedMPH,PrecipitationIn,Events,Conditions,WindDirDegrees,DateUTC
12:58 AM,71.6,69.8,94,30.04,10.0,SE,9.2,-,N/A,,Scattered Clouds,130,2013-07-06 05:58:00
1:58 AM,71.8,70.9,97,30.04,10.0,Variable,5.8,-,N/A,,Scattered Clouds,0,2013-07-06 06:58:00
2:03 AM,71.6,71.6,100,30.03,10.0,ESE,6.9,-,N/A,,Partly Cloudy,120,2013-07-06 07:03:00
2:28 AM,71.6,71.6,100,30.03,10.0,ESE,5.8,-,N/A,,Mostly Cloudy,120,2013-07-06 07:28:00
2:48 AM,71.6,71.6,100,30.02,10.0,ESE,6.9,-,N/A,,Scattered Clouds,110,2013-07-06 07:48:00
2:58 AM,72.1,72.0,99,30.03,10.0,ESE,5.8,-,N/A,,Scattered Clouds,120,2013-07-06 07:58:00
3:58 AM,72.5,72.1,99,30.03,10.0,East,4.6,-,N/A,,Partly Cloudy,90,2013-07-06 08:58:00
4:43 AM,73.4,71.6,94,30.03,10.0,ENE,2.3,-,N/A,,Mostly Cloudy,70,2013-07-06 09:43:00
4:48 AM,73.4,71.6,94,30.03,10.0,ENE,2.3,-,N/A,,Mostly Cloudy,70,2013-07-06 09:48:00
4:58 AM,72.9,72.5,99,30.04,10.0,NE,1.2,-,N/A,,Mostly Cloudy,50,2013-07-06 09:58:00
5:03 AM,73.4,73.4,100,30.04,9.0,ENE,2.3,-,N/A,,Overcast,70,2013-07-06 10:03:00
5:23 AM,73.4,73.4,100,30.04,9.0,East,4.6,-,N/A,,Overcast,80,2013-07-06 10:23:00
5:33 AM,73.4,73.4,100,30.04,10.0,East,3.5,-,N/A,,Overcast,80,2013-07-06 10:33:00
5:58 AM,73.8,73.4,99,30.05,10.0,ENE,2.3,-,N/A,,Overcast,60,2013-07-06 10:58:00
6:58 AM,74.5,74.3,99,30.06,10.0,East,3.5,-,N/A,,Overcast,80,2013-07-06 11:58:00
7:33 AM,75.2,73.4,94,30.05,10.0,East,5.8,-,N/A,,Overcast,80,2013-07-06 12:33:00
7:58 AM,76.6,73.8,91,30.06,10.0,East,8.1,-,N/A,,Overcast,100,2013-07-06 12:58:00
8:38 AM,77.0,73.4,89,30.05,10.0,East,8.1,-,N/A,,Overcast,80,2013-07-06 13:38:00
8:58 AM,78.3,73.2,84,30.06,10.0,East,9.2,-,N/A,,Mostly Cloudy,100,2013-07-06 13:58:00
9:13 AM,78.8,73.4,83,30.06,10.0,East,6.9,-,N/A,,Scattered Clouds,100,2013-07-06 14:13:00
9:23 AM,78.8,73.4,83,30.06,10.0,East,5.8,-,N/A,,Mostly Cloudy,100,2013-07-06 14:23:00
9:38 AM,78.8,73.4,83,30.07,10.0,Variable,5.8,-,N/A,,Scattered Clouds,0,2013-07-06 14:38:00
9:39 AM,78.8,73.4,83,30.07,9.0,ESE,5.8,-,N/A,Rain,Light Rain,110,2013-07-06 14:39:00
9:49 AM,77.0,75.2,94,30.07,3.0,ESE,5.8,-,N/A,Rain,Rain,120,2013-07-06 14:49:00
9:54 AM,77.0,75.2,94,30.07,5.0,ESE,5.8,-,N/A,Rain,Light Rain,120,2013-07-06 14:54:00
9:58 AM,77.0,74.7,92,30.08,8.0,SE,5.8,-,0.04,Rain,Light Rain,130,2013-07-06 14:58:00
10:08 AM,77.0,75.2,94,30.07,2.5,SE,5.8,-,N/A,Rain,Heavy Rain,130,2013-07-06 15:08:00
10:13 AM,77.0,75.2,94,30.07,2.0,SE,5.8,-,N/A,Rain,Heavy Rain,130,2013-07-06 15:13:00
10:18 AM,77.0,75.2,94,30.07,2.5,ESE,6.9,-,N/A,Rain,Rain,120,2013-07-06 15:18:00
10:23 AM,75.2,75.2,100,30.07,5.0,SE,5.8,-,N/A,Rain,Light Rain,130,2013-07-06 15:23:00
10:30 AM,75.2,73.4,94,30.07,10.0,South,8.1,-,N/A,,Scattered Clouds,170,2013-07-06 15:30:00
10:34 AM,75.2,73.4,94,30.07,6.0,South,10.4,-,N/A,Rain,Light Rain,170,2013-07-06 15:34:00
10:39 AM,75.2,73.4,94,30.07,2.5,SSE,8.1,-,N/A,Rain,Heavy Rain,160,2013-07-06 15:39:00
10:49 AM,75.2,73.4,94,30.07,4.0,SE,5.8,-,N/A,Rain,Rain,130,2013-07-06 15:49:00
10:58 AM,74.5,72.3,93,30.08,6.0,South,4.6,-,0.16,Rain,Light Rain,170,2013-07-06 15:58:00
11:08 AM,73.4,71.6,94,30.07,2.0,South,8.1,-,N/A,Rain,Heavy Rain,180,2013-07-06 16:08:00
11:13 AM,73.4,71.6,94,30.07,1.5,South,5.8,-,N/A,Rain,Heavy Rain,170,2013-07-06 16:13:00
11:28 AM,73.4,73.4,100,30.07,2.5,SSE,4.6,-,N/A,Rain,Rain,150,2013-07-06 16:28:00
11:38 AM,73.4,73.4,100,30.07,2.0,SSE,6.9,-,N/A,Rain,Heavy Rain,160,2013-07-06 16:38:00
11:48 AM,73.4,73.4,100,30.07,1.2,SE,5.8,-,N/A,Rain,Heavy Rain,130,2013-07-06 16:48:00
11:58 AM,73.4,71.6,94,30.08,1.5,SSE,3.5,-,0.39,Rain,Rain,160,2013-07-06 16:58:00
12:03 PM,73.4,73.4,100,30.07,2.5,South,4.6,-,N/A,Rain,Rain,170,2013-07-06 17:03:00
12:08 PM,73.4,73.4,100,30.07,4.0,SSW,5.8,-,N/A,Rain,Light Rain,210,2013-07-06 17:08:00
12:13 PM,73.4,71.6,94,30.08,5.0,WSW,8.1,-,N/A,Rain,Rain,240,2013-07-06 17:13:00
12:58 PM,73.2,72.3,97,30.09,4.0,SW,3.5,-,0.11,Rain,Rain,220,2013-07-06 17:58:00
1:13 PM,73.4,73.4,100,30.08,2.5,West,3.5,-,N/A,Rain,Rain,260,2013-07-06 18:13:00
1:18 PM,73.4,73.4,100,30.08,1.8,WSW,4.6,-,N/A,Rain,Heavy Rain,250,2013-07-06 18:18:00
1:33 PM,73.4,73.4,100,30.08,3.0,WSW,4.6,-,N/A,Rain,Rain,250,2013-07-06 18:33:00
1:53 PM,73.4,73.4,100,30.07,10.0,West,3.5,-,N/A,,Light Drizzle,260,2013-07-06 18:53:00
1:58 PM,73.6,73.4,99,30.08,10.0,West,4.6,-,0.22,Rain,Light Rain,280,2013-07-06 18:58:00
2:07 PM,75.2,73.4,94,30.07,10.0,West,6.9,-,N/A,,Partly Cloudy,270,2013-07-06 19:07:00
2:34 PM,77.0,71.6,83,30.06,10.0,NW,8.1,-,N/A,Rain,Light Rain,310,2013-07-06 19:34:00
2:46 PM,77.0,71.6,83,30.06,10.0,West,5.8,-,N/A,,Mostly Cloudy,280,2013-07-06 19:46:00
2:58 PM,77.9,71.6,81,30.06,10.0,WNW,6.9,-,0.01,,Mostly Cloudy,290,2013-07-06 19:58:00
3:58 PM,78.4,70.9,77,30.04,10.0,North,2.3,-,N/A,,Clear,10,2013-07-06 20:58:00
4:58 PM,78.1,72.9,84,30.06,10.0,East,5.8,-,N/A,,Clear,90,2013-07-06 21:58:00
5:17 PM,77.0,73.4,89,30.04,10.0,East,3.5,-,N/A,,Light Drizzle,100,2013-07-06 22:17:00
5:26 PM,77.0,73.4,89,30.03,10.0,East,3.5,-,N/A,,Clear,100,2013-07-06 22:26:00
5:51 PM,77.0,73.4,89,30.04,10.0,ESE,5.8,-,N/A,,Mostly Cloudy,120,2013-07-06 22:51:00
5:56 PM,77.0,73.4,89,30.04,10.0,ESE,4.6,-,N/A,,Scattered Clouds,120,2013-07-06 22:56:00
5:58 PM,77.0,73.4,89,30.04,10.0,ESE,5.8,-,0.00,,Scattered Clouds,120,2013-07-06 22:58:00
6:48 PM,77.0,71.6,83,30.05,10.0,ESE,8.1,-,N/A,,Mostly Cloudy,120,2013-07-06 23:48:00
6:53 PM,77.0,71.6,83,30.05,10.0,ESE,6.9,-,N/A,,Scattered Clouds,110,2013-07-06 23:53:00
6:58 PM,76.3,72.5,88,30.06,10.0,SE,3.5,-,N/A,,Mostly Cloudy,130,2013-07-06 23:58:00
7:08 PM,75.2,73.4,94,30.05,10.0,Variable,2.3,-,N/A,,Scattered Clouds,0,2013-07-07 00:08:00
7:48 PM,75.2,73.4,94,30.06,10.0,SE,3.5,-,N/A,,Mostly Cloudy,140,2013-07-07 00:48:00
7:58 PM,75.0,73.4,95,30.06,10.0,ESE,5.8,-,N/A,,Mostly Cloudy,120,2013-07-07 00:58:00
8:08 PM,75.2,73.4,94,30.06,10.0,SE,5.8,-,N/A,,Mostly Cloudy,130,2013-07-07 01:08:00
8:38 PM,75.2,73.4,94,30.07,10.0,SE,3.5,-,N/A,,Mostly Cloudy,140,2013-07-07 01:38:00
8:43 PM,75.2,73.4,94,30.07,10.0,SE,3.5,-,N/A,,Mostly Cloudy,130,2013-07-07 01:43:00
8:58 PM,74.3,73.0,96,30.08,10.0,ESE,4.6,-,N/A,,Scattered Clouds,120,2013-07-07 01:58:00
9:06 PM,73.4,73.4,100,30.07,10.0,SE,3.5,-,N/A,,Scattered Clouds,130,2013-07-07 02:06:00
9:58 PM,73.8,73.2,98,30.09,10.0,ESE,4.6,-,N/A,,Scattered Clouds,120,2013-07-07 02:58:00
10:58 PM,73.2,72.9,99,30.09,10.0,ESE,2.3,-,N/A,,Partly Cloudy,110,2013-07-07 03:58:00
11:58 PM,72.9,72.5,99,30.09,10.0,East,1.2,-,N/A,,Scattered Clouds,80,2013-07-07 04:58:00